Torna al catalogo

FENGYUN 1C DEB

AttivoSSO
NORAD 31192·DEBRIS·🇨🇳 China

Lanciato May 10, 1999 da Taiyuan Satellite Launch Center

Loading…

Prossimi Passaggi (prossime 24 ore)

TLE

AggiornatoSource: Space-Track

Epoca: Sep 12, 2026, 05:18 UTC

1 31192U 99025BJW 26255.22145658  .00000969  00000-0  33109-3 0  9997
2 31192  98.5797 236.1755 0257507  30.0870 331.4821 14.21587957  5956

Traccia FENGYUN 1C DEB in tempo reale con AllMySat

Download on the App Store